Regional Weather Roundup
Issued by NWS

Home | Current Version | Previous Version | Graphics & Text | Print | Product List | Glossary Off
Versions: 1 2 3 4 5 6 7 8 9 10 11 12 13 14 15 16 17 18 19 20 21 22 23 24 25 26 27 28 29 30 31 32 33 34 35 36 37 38 39 40 41 42 43 44 45 46 47 48 49 50

000
ASUS43 KTOP 261708
RWRKS

WEATHER ROUNDUP FOR KANSAS
NATIONAL WEATHER SERVICE GOODLAND KS
1200 PM CDT THU MAR 26 2015

NOTE:  "FAIR" INDICATES FEW OR NO CLOUDS BELOW 12,000 FEET WITH NO
SIGNIFICANT WEATHER AND/OR OBSTRUCTIONS TO VISIBILITY.

KSZ001>006-013>018-027>032-041>047-261800-
NORTHWEST KANSAS

CITY           SKY/WX    TMP DP  RH WIND       PRES   REMARKS
GOODLAND       CLOUDY    55  25  31 NW17      30.16F
HAYS           SUNNY     46  27  46 SW8       30.23F
HILL CITY      PTSUNNY   47  32  56 SW6       30.20F
RUSSELL        SUNNY     45  30  55 SW6       30.21F
$$

KSZ061>065-074>080-084>089-261800-
SOUTHWEST KANSAS

CITY           SKY/WX    TMP DP  RH WIND       PRES   REMARKS
DODGE CITY     SUNNY     49  28  44 VRB7      30.24F
ELKHART          N/A     51  33  50 SW6         N/A
GARDEN CITY    SUNNY     49  37  63 W12       30.22F
GREAT BEND     SUNNY     45  28  53 W7        30.24F
LIBERAL        SUNNY     50  37  62 W9        30.27F
PRATT          SUNNY     46  28  49 NE5       30.25F
$$

KSZ066>073-081>083-090>101-261800-
SOUTHEAST KANSAS

CITY           SKY/WX    TMP DP  RH WIND       PRES   REMARKS
CHANUTE        SUNNY     47  29  49 N9G23     30.22R
COFFEYVILLE    SUNNY     49  31  49 N12G21    30.23R
HUTCHINSON     SUNNY     48  27  44 NW9       30.24F
MEDICINE LODGE   N/A     49  29  46 N9        30.25F
NEWTON         SUNNY     45  27  49 N12       30.25F
PARSONS        SUNNY     49  31  49 N14       30.23S
WICHITA INTL   MOSUNNY   48  27  44 N9        30.24F
WICHITA JABRA  SUNNY     46  26  45 N10       30.24F
WICHITA MCCONL SUNNY     47  27  46 N10G18    30.24F
WINFIELD       SUNNY     50  27  40 NW13      30.25F
$$

KSZ007>012-019>026-033>040-048>060-102>105-261800-
NORTHEAST KANSAS

CITY           SKY/WX    TMP DP  RH WIND       PRES   REMARKS
CONCORDIA      SUNNY     44  25  47 CALM      30.21F
EMPORIA        SUNNY     47  26  44 NW12      30.21F
LAWRENCE       MOSUNNY   45  29  53 N12       30.22F
MANHATTAN      SUNNY     47  27  45 VRB5      30.23F
MARYSVILLE     SUNNY     43  28  56 NW10      30.22F
OLATHE IND     SUNNY     45  26  47 N18       30.20F
OLATHE EXE     SUNNY     44  24  45 N14       30.19F
SALINA         SUNNY     45  27  49 VRB3      30.24F
TOPEKA BILLARD SUNNY     46  29  51 N12       30.23F
TOPEKA FORBES  SUNNY     46  27  47 N14G20    30.22F
$$



USA.gov is the U.S. government's official web portal to all federal, state and local government web resources and services.